Year,Month,Day,Hour,Minute,Value (Times are PST for temperature in C)
2017,09,04,00,00,19.70
2017,09,04,00,01,19.70
2017,09,04,00,02,19.70
2017,09,04,00,03,19.70
2017,09,04,00,04,19.70
2017,09,04,00,05,19.80
2017,09,04,00,06,19.80
2017,09,04,00,07,19.80
2017,09,04,00,08,19.70
2017,09,04,00,09,19.80
2017,09,04,00,10,19.80
2017,09,04,00,11,19.80
2017,09,04,00,12,19.80
2017,09,04,00,13,19.90
2017,09,04,00,14,19.90
2017,09,04,00,15,19.90
2017,09,04,00,16,20.00
2017,09,04,00,17,20.00
2017,09,04,00,18,20.10
2017,09,04,00,19,20.10
2017,09,04,00,20,20.10
2017,09,04,00,21,20.10
2017,09,04,00,22,20.10
2017,09,04,00,23,20.20
2017,09,04,00,24,20.20
2017,09,04,00,25,20.20
2017,09,04,00,26,20.20
2017,09,04,00,27,20.20
2017,09,04,00,28,20.20
2017,09,04,00,29,20.20
2017,09,04,00,30,20.20
2017,09,04,00,31,20.10
2017,09,04,00,32,20.10
2017,09,04,00,33,20.00
2017,09,04,00,34,20.00
2017,09,04,00,35,19.90
2017,09,04,00,36,19.90
2017,09,04,00,37,19.80
2017,09,04,00,38,19.70
2017,09,04,00,39,19.70
2017,09,04,00,40,19.60
2017,09,04,00,41,19.60
2017,09,04,00,42,19.60
2017,09,04,00,43,19.60
2017,09,04,00,44,19.60
2017,09,04,00,45,19.60
2017,09,04,00,46,19.50
2017,09,04,00,47,19.50
2017,09,04,00,48,19.50
2017,09,04,00,49,19.40
2017,09,04,00,50,19.40
2017,09,04,00,51,19.40
2017,09,04,00,52,19.40
2017,09,04,00,53,19.30
2017,09,04,00,54,19.30
2017,09,04,00,55,19.30
2017,09,04,00,56,19.30
2017,09,04,00,57,19.30
2017,09,04,00,58,19.30
2017,09,04,00,59,19.20
2017,09,04,01,00,19.20
2017,09,04,01,01,19.20
2017,09,04,01,02,19.20
2017,09,04,01,03,19.20
2017,09,04,01,04,19.20
2017,09,04,01,05,19.20
2017,09,04,01,06,19.10
2017,09,04,01,07,19.10
2017,09,04,01,08,19.10
2017,09,04,01,09,19.10
2017,09,04,01,10,19.10
2017,09,04,01,11,19.10
2017,09,04,01,12,19.00
2017,09,04,01,13,19.00
2017,09,04,01,14,19.00
2017,09,04,01,15,19.00
2017,09,04,01,16,19.00
2017,09,04,01,17,18.90
2017,09,04,01,18,18.90
2017,09,04,01,19,18.90
2017,09,04,01,20,18.90
2017,09,04,01,21,18.90
2017,09,04,01,22,18.90
2017,09,04,01,23,18.90
2017,09,04,01,24,18.90
2017,09,04,01,25,19.00
2017,09,04,01,26,19.00
2017,09,04,01,27,19.00
2017,09,04,01,28,19.00
2017,09,04,01,29,19.00
2017,09,04,01,30,19.00
2017,09,04,01,31,19.00
2017,09,04,01,32,19.00
2017,09,04,01,33,19.00
2017,09,04,01,34,19.00
2017,09,04,01,35,18.90
2017,09,04,01,36,18.90
2017,09,04,01,37,18.90
2017,09,04,01,38,18.90
2017,09,04,01,39,18.90
2017,09,04,01,40,18.90
2017,09,04,01,41,18.90
2017,09,04,01,42,18.90
2017,09,04,01,43,18.90
2017,09,04,01,44,18.90
2017,09,04,01,45,18.90
2017,09,04,01,46,18.90
2017,09,04,01,47,18.90
2017,09,04,01,48,18.90
2017,09,04,01,49,18.80
2017,09,04,01,50,18.80
2017,09,04,01,51,18.80
2017,09,04,01,52,18.80
2017,09,04,01,53,18.80
2017,09,04,01,54,18.80
2017,09,04,01,55,18.80
2017,09,04,01,56,18.70
2017,09,04,01,57,18.70
2017,09,04,01,58,18.70
2017,09,04,01,59,18.70
2017,09,04,02,00,18.70
2017,09,04,02,01,18.70
2017,09,04,02,02,18.70
2017,09,04,02,03,18.70
2017,09,04,02,04,18.60
2017,09,04,02,05,18.60
2017,09,04,02,06,18.60
2017,09,04,02,07,18.60
2017,09,04,02,08,18.60
2017,09,04,02,09,18.60
2017,09,04,02,10,18.50
2017,09,04,02,11,18.50
2017,09,04,02,12,18.50
2017,09,04,02,13,18.50
2017,09,04,02,14,18.50
2017,09,04,02,15,18.50
2017,09,04,02,16,18.50
2017,09,04,02,17,18.50
2017,09,04,02,18,18.50
2017,09,04,02,19,18.50
2017,09,04,02,20,18.50
2017,09,04,02,21,18.50
2017,09,04,02,22,18.40
2017,09,04,02,23,18.40
2017,09,04,02,24,18.40
2017,09,04,02,25,18.40
2017,09,04,02,26,18.40
2017,09,04,02,27,18.40
2017,09,04,02,28,18.40
2017,09,04,02,29,18.30
2017,09,04,02,30,18.30
2017,09,04,02,31,18.30
2017,09,04,02,32,18.30
2017,09,04,02,33,18.30
2017,09,04,02,34,18.30
2017,09,04,02,35,18.20
2017,09,04,02,36,18.20
2017,09,04,02,37,18.20
2017,09,04,02,38,18.20
2017,09,04,02,39,18.10
2017,09,04,02,40,18.10
2017,09,04,02,41,18.10
2017,09,04,02,42,18.10
2017,09,04,02,43,18.10
2017,09,04,02,44,18.10
2017,09,04,02,45,18.00
2017,09,04,02,46,18.00
2017,09,04,02,47,18.00
2017,09,04,02,48,18.00
2017,09,04,02,49,18.00
2017,09,04,02,50,18.00
2017,09,04,02,51,18.00
2017,09,04,02,52,17.90
2017,09,04,02,53,17.90
2017,09,04,02,54,17.90
2017,09,04,02,55,17.90
2017,09,04,02,56,17.90
2017,09,04,02,57,17.90
2017,09,04,02,58,17.90
2017,09,04,02,59,17.90
2017,09,04,03,00,17.90
2017,09,04,03,01,17.90
2017,09,04,03,02,17.90
2017,09,04,03,03,17.90
2017,09,04,03,04,17.90
2017,09,04,03,05,17.90
2017,09,04,03,06,17.90
2017,09,04,03,07,17.90
2017,09,04,03,08,17.90
2017,09,04,03,09,17.90
2017,09,04,03,10,17.90
2017,09,04,03,11,17.90
2017,09,04,03,12,17.90
2017,09,04,03,13,17.90
2017,09,04,03,14,17.90
2017,09,04,03,15,17.90
2017,09,04,03,16,17.90
2017,09,04,03,17,17.90
2017,09,04,03,18,17.90
2017,09,04,03,19,17.90
2017,09,04,03,20,17.90
2017,09,04,03,21,17.90
2017,09,04,03,22,17.80
2017,09,04,03,23,17.80
2017,09,04,03,24,17.80
2017,09,04,03,25,17.80
2017,09,04,03,26,17.80
2017,09,04,03,27,17.80
2017,09,04,03,28,17.80
2017,09,04,03,29,17.80
2017,09,04,03,30,17.70
2017,09,04,03,31,17.70
2017,09,04,03,32,17.70
2017,09,04,03,33,17.70
2017,09,04,03,34,17.70
2017,09,04,03,35,17.70
2017,09,04,03,36,17.70
2017,09,04,03,37,17.60
2017,09,04,03,38,17.60
2017,09,04,03,39,17.60
2017,09,04,03,40,17.60
2017,09,04,03,41,17.60
2017,09,04,03,42,17.60
2017,09,04,03,43,17.60
2017,09,04,03,44,17.60
2017,09,04,03,45,17.70
2017,09,04,03,46,17.70
2017,09,04,03,47,17.70
2017,09,04,03,48,17.70
2017,09,04,03,49,17.70
2017,09,04,03,50,17.70
2017,09,04,03,51,17.70
2017,09,04,03,52,17.70
2017,09,04,03,53,17.70
2017,09,04,03,54,17.70
2017,09,04,03,55,17.70
2017,09,04,03,56,17.70
2017,09,04,03,57,17.70
2017,09,04,03,58,17.70
2017,09,04,03,59,17.70
2017,09,04,04,00,17.70
2017,09,04,04,01,17.80
2017,09,04,04,02,17.80
2017,09,04,04,03,17.70
2017,09,04,04,04,17.70
2017,09,04,04,05,17.70
2017,09,04,04,06,17.70
2017,09,04,04,07,17.70
2017,09,04,04,08,17.80
2017,09,04,04,09,17.80
2017,09,04,04,10,17.80
2017,09,04,04,11,17.80
2017,09,04,04,12,17.80
2017,09,04,04,13,17.80
2017,09,04,04,14,17.80
2017,09,04,04,15,17.80
2017,09,04,04,16,17.80
2017,09,04,04,17,17.90
2017,09,04,04,18,17.90
2017,09,04,04,19,17.90
2017,09,04,04,20,17.90
2017,09,04,04,21,17.90
2017,09,04,04,22,18.00
2017,09,04,04,23,18.00
2017,09,04,04,24,18.00
2017,09,04,04,25,18.10
2017,09,04,04,26,18.10
2017,09,04,04,27,18.10
2017,09,04,04,28,18.10
2017,09,04,04,29,18.10
2017,09,04,04,30,18.10
2017,09,04,04,31,18.00
2017,09,04,04,32,18.00
2017,09,04,04,33,18.00
2017,09,04,04,34,18.00
2017,09,04,04,35,18.00
2017,09,04,04,36,18.00
2017,09,04,04,37,18.00
2017,09,04,04,38,18.00
2017,09,04,04,39,18.00
2017,09,04,04,40,18.00
2017,09,04,04,41,18.00
2017,09,04,04,42,18.00
2017,09,04,04,43,18.00
2017,09,04,04,44,18.00
2017,09,04,04,45,18.00
2017,09,04,04,46,18.00
2017,09,04,04,47,18.00
2017,09,04,04,48,18.00
2017,09,04,04,49,18.00
2017,09,04,04,50,18.00
2017,09,04,04,51,18.00
2017,09,04,04,52,18.00
2017,09,04,04,53,18.00
2017,09,04,04,54,18.00
2017,09,04,04,55,18.00
2017,09,04,04,56,18.00
2017,09,04,04,57,18.00
2017,09,04,04,58,18.10
2017,09,04,04,59,18.10
2017,09,04,05,00,18.10
2017,09,04,05,01,18.10
2017,09,04,05,02,18.20
2017,09,04,05,03,18.20
2017,09,04,05,04,18.20
2017,09,04,05,05,18.20
2017,09,04,05,06,18.30
2017,09,04,05,07,18.30
2017,09,04,05,08,18.30
2017,09,04,05,09,18.40
2017,09,04,05,10,18.40
2017,09,04,05,11,18.50
2017,09,04,05,12,18.50
2017,09,04,05,13,18.50
2017,09,04,05,14,18.50
2017,09,04,05,15,18.60
2017,09,04,05,16,18.60
2017,09,04,05,17,18.60
2017,09,04,05,18,18.70
2017,09,04,05,19,18.70
2017,09,04,05,20,18.70
2017,09,04,05,21,18.70
2017,09,04,05,22,18.80
2017,09,04,05,23,18.80
2017,09,04,05,24,18.90
2017,09,04,05,25,19.00
2017,09,04,05,26,19.00
2017,09,04,05,27,19.00
2017,09,04,05,28,19.00
2017,09,04,05,29,19.10
2017,09,04,05,30,19.10
2017,09,04,05,31,19.10
2017,09,04,05,32,19.10
2017,09,04,05,33,19.10
2017,09,04,05,34,19.00
2017,09,04,05,35,18.90
2017,09,04,05,36,18.90
2017,09,04,05,37,18.80
2017,09,04,05,38,18.80
2017,09,04,05,39,18.80
2017,09,04,05,40,18.70
2017,09,04,05,41,18.70
2017,09,04,05,42,18.70
2017,09,04,05,43,18.70
2017,09,04,05,44,18.70
2017,09,04,05,45,18.70
2017,09,04,05,46,18.70
2017,09,04,05,47,18.70
2017,09,04,05,48,18.70
2017,09,04,05,49,18.70
2017,09,04,05,50,18.70
2017,09,04,05,51,18.80
2017,09,04,05,52,18.80
2017,09,04,05,53,18.80
2017,09,04,05,54,18.80
2017,09,04,05,55,18.80
2017,09,04,05,56,18.80
2017,09,04,05,57,18.70
2017,09,04,05,58,18.70
2017,09,04,05,59,18.70
2017,09,04,06,00,18.70
2017,09,04,06,01,18.70
2017,09,04,06,02,18.70
2017,09,04,06,03,18.70
2017,09,04,06,04,18.80
2017,09,04,06,05,18.80
2017,09,04,06,06,18.80
2017,09,04,06,07,18.90
2017,09,04,06,08,18.90
2017,09,04,06,09,19.00
2017,09,04,06,10,19.00
2017,09,04,06,11,19.00
2017,09,04,06,12,19.00
2017,09,04,06,13,19.00
2017,09,04,06,14,19.00
2017,09,04,06,15,19.00
2017,09,04,06,16,19.00
2017,09,04,06,17,19.00
2017,09,04,06,18,19.00
2017,09,04,06,19,19.00
2017,09,04,06,20,19.10
2017,09,04,06,21,19.10
2017,09,04,06,22,19.10
2017,09,04,06,23,19.10
2017,09,04,06,24,19.20
2017,09,04,06,25,19.20
2017,09,04,06,26,19.20
2017,09,04,06,27,19.20
2017,09,04,06,28,19.10
2017,09,04,06,29,19.10
2017,09,04,06,30,19.10
2017,09,04,06,31,19.10
2017,09,04,06,32,19.10
2017,09,04,06,33,19.00
2017,09,04,06,34,19.00
2017,09,04,06,35,18.90
2017,09,04,06,36,18.90
2017,09,04,06,37,18.80
2017,09,04,06,38,18.80
2017,09,04,06,39,18.70
2017,09,04,06,40,18.70
2017,09,04,06,41,18.70
2017,09,04,06,42,18.60
2017,09,04,06,43,18.60
2017,09,04,06,44,18.60
2017,09,04,06,45,18.50
2017,09,04,06,46,18.50
2017,09,04,06,47,18.40
2017,09,04,06,48,18.40
2017,09,04,06,49,18.30
2017,09,04,06,50,18.30
2017,09,04,06,51,18.30
2017,09,04,06,52,18.20
2017,09,04,06,53,18.20
2017,09,04,06,54,18.20
2017,09,04,06,55,18.20
2017,09,04,06,56,18.20
2017,09,04,06,57,18.20
2017,09,04,06,58,18.20
2017,09,04,06,59,18.20
2017,09,04,07,00,18.20
2017,09,04,07,01,18.20
2017,09,04,07,02,18.20
2017,09,04,07,03,18.20
2017,09,04,07,04,18.20
2017,09,04,07,05,18.20
2017,09,04,07,06,18.20
2017,09,04,07,07,18.20
2017,09,04,07,08,18.20
2017,09,04,07,09,18.20
2017,09,04,07,10,18.20
2017,09,04,07,11,18.20
2017,09,04,07,12,18.20
2017,09,04,07,13,18.20
2017,09,04,07,14,18.20
2017,09,04,07,15,18.20
2017,09,04,07,16,18.30
2017,09,04,07,17,18.30
2017,09,04,07,18,18.30
2017,09,04,07,19,18.30
2017,09,04,07,20,18.40
2017,09,04,07,21,18.40
2017,09,04,07,22,18.40
2017,09,04,07,23,18.40
2017,09,04,07,24,18.50
2017,09,04,07,25,18.50
2017,09,04,07,26,18.60
2017,09,04,07,27,18.60
2017,09,04,07,28,18.60
2017,09,04,07,29,18.70
2017,09,04,07,30,18.70
2017,09,04,07,31,18.70
2017,09,04,07,32,18.70
2017,09,04,07,33,18.80
2017,09,04,07,34,18.80
2017,09,04,07,35,18.80
2017,09,04,07,36,18.80
2017,09,04,07,37,18.90
2017,09,04,07,38,18.90
2017,09,04,07,39,18.90
2017,09,04,07,40,18.90
2017,09,04,07,41,18.90
2017,09,04,07,42,18.90
2017,09,04,07,43,18.90
2017,09,04,07,44,19.00
2017,09,04,07,45,19.00
2017,09,04,07,46,19.00
2017,09,04,07,47,19.10
2017,09,04,07,48,19.10
2017,09,04,07,49,19.10
2017,09,04,07,50,19.20
2017,09,04,07,51,19.20
2017,09,04,07,52,19.20
2017,09,04,07,53,19.30
2017,09,04,07,54,19.30
2017,09,04,07,55,19.30
2017,09,04,07,56,19.40
2017,09,04,07,57,19.40
2017,09,04,07,58,19.40
2017,09,04,07,59,19.40
2017,09,04,08,00,19.40
2017,09,04,08,01,19.40
2017,09,04,08,02,19.40
2017,09,04,08,03,19.40
2017,09,04,08,04,19.40
2017,09,04,08,05,19.40
2017,09,04,08,06,19.40
2017,09,04,08,07,19.40
2017,09,04,08,08,19.40
2017,09,04,08,09,19.40
2017,09,04,08,10,19.50
2017,09,04,08,11,19.50
2017,09,04,08,12,19.50
2017,09,04,08,13,19.50
2017,09,04,08,14,19.60
2017,09,04,08,15,19.60
2017,09,04,08,16,19.60
2017,09,04,08,17,19.70
2017,09,04,08,18,19.70
2017,09,04,08,19,19.70
2017,09,04,08,20,19.70
2017,09,04,08,21,19.70
2017,09,04,08,22,19.70
2017,09,04,08,23,19.80
2017,09,04,08,24,19.80
2017,09,04,08,25,19.80
2017,09,04,08,26,19.80
2017,09,04,08,27,19.90
2017,09,04,08,28,19.90
2017,09,04,08,29,20.00
2017,09,04,08,30,20.00
2017,09,04,08,31,20.10
2017,09,04,08,32,20.10
2017,09,04,08,33,20.20
2017,09,04,08,34,20.20
2017,09,04,08,35,20.20
2017,09,04,08,36,20.30
2017,09,04,08,37,20.30
2017,09,04,08,38,20.30
2017,09,04,08,39,20.40
2017,09,04,08,40,20.40
2017,09,04,08,41,20.50
2017,09,04,08,42,20.50
2017,09,04,08,43,20.60
2017,09,04,08,44,20.60
2017,09,04,08,45,20.70
2017,09,04,08,46,20.70
2017,09,04,08,47,20.80
2017,09,04,08,48,20.80
2017,09,04,08,49,20.90
2017,09,04,08,50,20.90
2017,09,04,08,51,21.00
2017,09,04,08,52,21.00
2017,09,04,08,53,21.10
2017,09,04,08,54,21.10
2017,09,04,08,55,21.20
2017,09,04,08,56,21.30
2017,09,04,08,57,21.30
2017,09,04,08,58,21.40
2017,09,04,08,59,21.50
2017,09,04,09,00,21.50
2017,09,04,09,01,21.60
2017,09,04,09,02,21.70
2017,09,04,09,03,21.70
2017,09,04,09,04,21.80
2017,09,04,09,05,21.80
2017,09,04,09,06,21.90
2017,09,04,09,07,21.90
2017,09,04,09,08,22.00
2017,09,04,09,09,22.00
2017,09,04,09,10,22.10
2017,09,04,09,11,22.20
2017,09,04,09,12,22.20
2017,09,04,09,13,22.30
2017,09,04,09,14,22.30
2017,09,04,09,15,22.40
2017,09,04,09,16,22.40
2017,09,04,09,17,22.50
2017,09,04,09,18,22.60
2017,09,04,09,19,22.60
2017,09,04,09,20,22.70
2017,09,04,09,21,22.70
2017,09,04,09,22,22.70
2017,09,04,09,23,22.80
2017,09,04,09,24,22.80
2017,09,04,09,25,22.90
2017,09,04,09,26,22.90
2017,09,04,09,27,23.00
2017,09,04,09,28,23.00
2017,09,04,09,29,23.10
2017,09,04,09,30,23.10
2017,09,04,09,31,23.10
2017,09,04,09,32,23.20
2017,09,04,09,33,23.20
2017,09,04,09,34,23.20
2017,09,04,09,35,23.30
2017,09,04,09,36,23.30
2017,09,04,09,37,23.40
2017,09,04,09,38,23.40
2017,09,04,09,39,23.50
2017,09,04,09,40,23.50
2017,09,04,09,41,23.60
2017,09,04,09,42,23.60
2017,09,04,09,43,23.70
2017,09,04,09,44,23.70
2017,09,04,09,45,23.70
2017,09,04,09,46,23.80
2017,09,04,09,47,23.80
2017,09,04,09,48,23.90
2017,09,04,09,49,23.90
2017,09,04,09,50,24.00
2017,09,04,09,51,24.00
2017,09,04,09,52,24.10
2017,09,04,09,53,24.10
2017,09,04,09,54,24.20
2017,09,04,09,55,24.20
2017,09,04,09,56,24.30
2017,09,04,09,57,24.30
2017,09,04,09,58,24.30
2017,09,04,09,59,24.40
2017,09,04,10,00,24.40
2017,09,04,10,01,24.50
2017,09,04,10,02,24.50
2017,09,04,10,03,24.60
2017,09,04,10,04,24.60
2017,09,04,10,05,24.70
2017,09,04,10,06,24.70
2017,09,04,10,07,24.80
2017,09,04,10,08,24.80
2017,09,04,10,09,24.90
2017,09,04,10,10,24.90
2017,09,04,10,11,24.90
2017,09,04,10,12,25.00
2017,09,04,10,13,25.10
2017,09,04,10,14,25.10
2017,09,04,10,15,25.20
2017,09,04,10,16,25.20
2017,09,04,10,17,25.30
2017,09,04,10,18,25.30
2017,09,04,10,19,25.30
2017,09,04,10,20,25.40
2017,09,04,10,21,25.40
2017,09,04,10,22,25.50
2017,09,04,10,23,25.50
2017,09,04,10,24,25.60
2017,09,04,10,25,25.60
2017,09,04,10,26,25.70
2017,09,04,10,27,25.70
2017,09,04,10,28,25.70
2017,09,04,10,29,25.70
2017,09,04,10,30,25.70
2017,09,04,10,31,25.70
2017,09,04,10,32,25.70
2017,09,04,10,33,25.70
2017,09,04,10,34,25.70
2017,09,04,10,35,25.80
2017,09,04,10,36,25.80
2017,09,04,10,37,25.80
2017,09,04,10,38,25.80
2017,09,04,10,39,25.80
2017,09,04,10,40,25.80
2017,09,04,10,41,25.80
2017,09,04,10,42,25.80
2017,09,04,10,43,25.80
2017,09,04,10,44,25.80
2017,09,04,10,45,25.90
2017,09,04,10,46,25.90
2017,09,04,10,47,25.90
2017,09,04,10,48,25.90
2017,09,04,10,49,26.00
2017,09,04,10,50,26.00
2017,09,04,10,51,26.10
2017,09,04,10,52,26.10
2017,09,04,10,53,26.10
2017,09,04,10,54,26.20
2017,09,04,10,55,26.30
2017,09,04,10,56,26.40
2017,09,04,10,57,26.40
2017,09,04,10,58,26.50
2017,09,04,10,59,26.60
2017,09,04,11,00,26.70
2017,09,04,11,01,26.70
2017,09,04,11,02,26.80
2017,09,04,11,03,26.90
2017,09,04,11,04,26.90
2017,09,04,11,05,27.00
2017,09,04,11,06,27.00
2017,09,04,11,07,27.10
2017,09,04,11,08,27.10
2017,09,04,11,09,27.20
2017,09,04,11,10,27.20
2017,09,04,11,11,27.20
2017,09,04,11,12,27.20
2017,09,04,11,13,27.20
2017,09,04,11,14,27.20
2017,09,04,11,15,27.30
2017,09,04,11,16,27.30
2017,09,04,11,17,27.30
2017,09,04,11,18,27.30
2017,09,04,11,19,27.30
2017,09,04,11,20,27.30
2017,09,04,11,21,27.30
2017,09,04,11,22,27.30
2017,09,04,11,23,27.40
2017,09,04,11,24,27.40
2017,09,04,11,25,27.40
2017,09,04,11,26,27.40
2017,09,04,11,27,27.40
2017,09,04,11,28,27.40
2017,09,04,11,29,27.40
2017,09,04,11,30,27.40
2017,09,04,11,31,27.40
2017,09,04,11,32,27.40
2017,09,04,11,33,27.40
2017,09,04,11,34,27.40
2017,09,04,11,35,27.50
2017,09,04,11,36,27.50
2017,09,04,11,37,27.50
2017,09,04,11,38,27.60
2017,09,04,11,39,27.60
2017,09,04,11,40,27.60
2017,09,04,11,41,27.60
2017,09,04,11,42,27.60
2017,09,04,11,43,27.60
2017,09,04,11,44,27.60
2017,09,04,11,45,27.70
2017,09,04,11,46,27.80
2017,09,04,11,47,27.80
2017,09,04,11,48,27.90
2017,09,04,11,49,28.00
2017,09,04,11,50,28.10
2017,09,04,11,51,28.10
2017,09,04,11,52,28.10
2017,09,04,11,53,28.10
2017,09,04,11,54,28.20
2017,09,04,11,55,28.20
2017,09,04,11,56,28.30
2017,09,04,11,57,28.30
2017,09,04,11,58,28.30
2017,09,04,11,59,28.30
2017,09,04,12,00,28.40
2017,09,04,12,01,28.40
2017,09,04,12,02,28.40
2017,09,04,12,03,28.40
2017,09,04,12,04,28.50
2017,09,04,12,05,28.60
2017,09,04,12,06,28.70
2017,09,04,12,07,28.70
2017,09,04,12,08,28.80
2017,09,04,12,09,28.90
2017,09,04,12,10,28.90
2017,09,04,12,11,29.00
2017,09,04,12,12,29.10
2017,09,04,12,13,29.10
2017,09,04,12,14,29.10
2017,09,04,12,15,29.20
2017,09,04,12,16,29.20
2017,09,04,12,17,29.20
2017,09,04,12,18,29.20
2017,09,04,12,19,29.20
2017,09,04,12,20,29.20
2017,09,04,12,21,29.10
2017,09,04,12,22,29.20
2017,09,04,12,23,29.20
2017,09,04,12,24,29.20
2017,09,04,12,25,29.20
2017,09,04,12,26,29.30
2017,09,04,12,27,29.30
2017,09,04,12,28,29.30
2017,09,04,12,29,29.30
2017,09,04,12,30,29.40
2017,09,04,12,31,29.40
2017,09,04,12,32,29.40
2017,09,04,12,33,29.30
2017,09,04,12,34,29.30
2017,09,04,12,35,29.30
2017,09,04,12,36,29.40
2017,09,04,12,37,29.40
2017,09,04,12,38,29.50
2017,09,04,12,39,29.50
2017,09,04,12,40,29.60
2017,09,04,12,41,29.60
2017,09,04,12,42,29.60
2017,09,04,12,43,29.60
2017,09,04,12,44,29.60
2017,09,04,12,45,29.60
2017,09,04,12,46,29.70
2017,09,04,12,47,29.70
2017,09,04,12,48,29.80
2017,09,04,12,49,29.80
2017,09,04,12,50,29.80
2017,09,04,12,51,29.80
2017,09,04,12,52,29.80
2017,09,04,12,53,29.80
2017,09,04,12,54,29.70
2017,09,04,12,55,29.70
2017,09,04,12,56,29.60
2017,09,04,12,57,29.60
2017,09,04,12,58,29.60
2017,09,04,12,59,29.50
2017,09,04,13,00,29.60
2017,09,04,13,01,29.60
2017,09,04,13,02,29.60
2017,09,04,13,03,29.70
2017,09,04,13,04,29.70
2017,09,04,13,05,29.70
2017,09,04,13,06,29.80
2017,09,04,13,07,29.80
2017,09,04,13,08,29.80
2017,09,04,13,09,29.80
2017,09,04,13,10,29.80
2017,09,04,13,11,29.80
2017,09,04,13,12,29.80
2017,09,04,13,13,29.80
2017,09,04,13,14,29.80
2017,09,04,13,15,29.80
2017,09,04,13,16,29.80
2017,09,04,13,17,29.80
2017,09,04,13,18,29.80
2017,09,04,13,19,29.90
2017,09,04,13,20,29.90
2017,09,04,13,21,29.90
2017,09,04,13,22,30.00
2017,09,04,13,23,30.00
2017,09,04,13,24,30.10
2017,09,04,13,25,30.10
2017,09,04,13,26,30.20
2017,09,04,13,27,30.20
2017,09,04,13,28,30.30
2017,09,04,13,29,30.30
2017,09,04,13,30,30.40
2017,09,04,13,31,30.40
2017,09,04,13,32,30.50
2017,09,04,13,33,30.60
2017,09,04,13,34,30.60
2017,09,04,13,35,30.60
2017,09,04,13,36,30.70
2017,09,04,13,37,30.70
2017,09,04,13,38,30.70
2017,09,04,13,39,30.70
2017,09,04,13,40,30.70
2017,09,04,13,41,30.70
2017,09,04,13,42,30.70
2017,09,04,13,43,30.80
2017,09,04,13,44,30.80
2017,09,04,13,45,30.80
2017,09,04,13,46,30.80
2017,09,04,13,47,30.80
2017,09,04,13,48,30.80
2017,09,04,13,49,30.80
2017,09,04,13,50,30.70
2017,09,04,13,51,30.70
2017,09,04,13,52,30.70
2017,09,04,13,53,30.60
2017,09,04,13,54,30.60
2017,09,04,13,55,30.50
2017,09,04,13,56,30.40
2017,09,04,13,57,30.40
2017,09,04,13,58,30.50
2017,09,04,13,59,30.50
2017,09,04,14,00,30.60
2017,09,04,14,01,30.60
2017,09,04,14,02,30.70
2017,09,04,14,03,30.70
2017,09,04,14,04,30.80
2017,09,04,14,05,30.80
2017,09,04,14,06,30.80
2017,09,04,14,07,30.80
2017,09,04,14,08,30.90
2017,09,04,14,09,30.90
2017,09,04,14,10,31.00
2017,09,04,14,11,31.00
2017,09,04,14,12,31.00
2017,09,04,14,13,31.00
2017,09,04,14,14,31.00
2017,09,04,14,15,31.00
2017,09,04,14,16,31.00
2017,09,04,14,17,31.10
2017,09,04,14,18,31.10
2017,09,04,14,19,31.10
2017,09,04,14,20,31.10
2017,09,04,14,21,31.10
2017,09,04,14,22,31.20
2017,09,04,14,23,31.20
2017,09,04,14,24,31.20
2017,09,04,14,25,31.30
2017,09,04,14,26,31.30
2017,09,04,14,27,31.30
2017,09,04,14,28,31.30
2017,09,04,14,29,31.40
2017,09,04,14,30,31.40
2017,09,04,14,31,31.50
2017,09,04,14,32,31.60
2017,09,04,14,33,31.60
2017,09,04,14,34,31.60
2017,09,04,14,35,31.60
2017,09,04,14,36,31.60
2017,09,04,14,37,31.60
2017,09,04,14,38,31.60
2017,09,04,14,39,31.60
2017,09,04,14,40,31.60
2017,09,04,14,41,31.60
2017,09,04,14,42,31.60
2017,09,04,14,43,31.60
2017,09,04,14,44,31.60
2017,09,04,14,45,31.60
2017,09,04,14,46,31.60
2017,09,04,14,47,31.60
2017,09,04,14,48,31.60
2017,09,04,14,49,31.70
2017,09,04,14,50,31.70
2017,09,04,14,51,31.80
2017,09,04,14,52,31.90
2017,09,04,14,53,32.00
2017,09,04,14,54,32.00
2017,09,04,14,55,32.10
2017,09,04,14,56,32.10
2017,09,04,14,57,32.20
2017,09,04,14,58,32.20
2017,09,04,14,59,32.20
2017,09,04,15,00,32.20
2017,09,04,15,01,32.10
2017,09,04,15,02,32.10
2017,09,04,15,03,32.10
2017,09,04,15,04,32.10
2017,09,04,15,05,32.10
2017,09,04,15,06,32.10
2017,09,04,15,07,32.10
2017,09,04,15,08,32.10
2017,09,04,15,09,32.20
2017,09,04,15,10,32.20
2017,09,04,15,11,32.20
2017,09,04,15,12,32.20
2017,09,04,15,13,32.20
2017,09,04,15,14,32.20
2017,09,04,15,15,32.20
2017,09,04,15,16,32.30
2017,09,04,15,17,32.30
2017,09,04,15,18,32.30
2017,09,04,15,19,32.40
2017,09,04,15,20,32.40
2017,09,04,15,21,32.50
2017,09,04,15,22,32.50
2017,09,04,15,23,32.60
2017,09,04,15,24,32.60
2017,09,04,15,25,32.60
2017,09,04,15,26,32.70
2017,09,04,15,27,32.70
2017,09,04,15,28,32.70
2017,09,04,15,29,32.60
2017,09,04,15,30,32.60
2017,09,04,15,31,32.50
2017,09,04,15,32,32.40
2017,09,04,15,33,32.40
2017,09,04,15,34,32.30
2017,09,04,15,35,32.20
2017,09,04,15,36,32.20
2017,09,04,15,37,32.20
2017,09,04,15,38,32.10
2017,09,04,15,39,32.10
2017,09,04,15,40,32.00
2017,09,04,15,41,31.90
2017,09,04,15,42,31.90
2017,09,04,15,43,31.80
2017,09,04,15,44,31.70
2017,09,04,15,45,31.70
2017,09,04,15,46,31.60
2017,09,04,15,47,31.60
2017,09,04,15,48,31.60
2017,09,04,15,49,31.60
2017,09,04,15,50,31.60
2017,09,04,15,51,31.60
2017,09,04,15,52,31.60
2017,09,04,15,53,31.60
2017,09,04,15,54,31.60
2017,09,04,15,55,31.70
2017,09,04,15,56,31.80
2017,09,04,15,57,31.80
2017,09,04,15,58,31.90
2017,09,04,15,59,31.90
2017,09,04,16,00,32.00
2017,09,04,16,01,32.10
2017,09,04,16,02,32.10
2017,09,04,16,03,32.20
2017,09,04,16,04,32.30
2017,09,04,16,05,32.30
2017,09,04,16,06,32.40
2017,09,04,16,07,32.40
2017,09,04,16,08,32.50
2017,09,04,16,09,32.50
2017,09,04,16,10,32.50
2017,09,04,16,11,32.60
2017,09,04,16,12,32.60
2017,09,04,16,13,32.60
2017,09,04,16,14,32.60
2017,09,04,16,15,32.60
2017,09,04,16,16,32.60
2017,09,04,16,17,32.60
2017,09,04,16,18,32.60
2017,09,04,16,19,32.60
2017,09,04,16,20,32.60
2017,09,04,16,21,32.60
2017,09,04,16,22,32.60
2017,09,04,16,23,32.60
2017,09,04,16,24,32.60
2017,09,04,16,25,32.50
2017,09,04,16,26,32.50
2017,09,04,16,27,32.40
2017,09,04,16,28,32.40
2017,09,04,16,29,32.30
2017,09,04,16,30,32.30
2017,09,04,16,31,32.20
2017,09,04,16,32,32.20
2017,09,04,16,33,32.10
2017,09,04,16,34,32.00
2017,09,04,16,35,31.90
2017,09,04,16,36,31.90
2017,09,04,16,37,31.80
2017,09,04,16,38,31.80
2017,09,04,16,39,31.80
2017,09,04,16,40,31.80
2017,09,04,16,41,31.80
2017,09,04,16,42,31.80
2017,09,04,16,43,31.80
2017,09,04,16,44,31.80
2017,09,04,16,45,31.80
2017,09,04,16,46,31.80
2017,09,04,16,47,31.80
2017,09,04,16,48,31.80
2017,09,04,16,49,31.70
2017,09,04,16,50,31.70
2017,09,04,16,51,31.70
2017,09,04,16,52,31.70
2017,09,04,16,53,31.60
2017,09,04,16,54,31.60
2017,09,04,16,55,31.60
2017,09,04,16,56,31.60
2017,09,04,16,57,31.60
2017,09,04,16,58,31.60
2017,09,04,16,59,31.60
2017,09,04,17,00,31.60
2017,09,04,17,01,31.70
2017,09,04,17,02,31.70
2017,09,04,17,03,31.70
2017,09,04,17,04,31.80
2017,09,04,17,05,31.80
2017,09,04,17,06,31.80
2017,09,04,17,07,31.90
2017,09,04,17,08,31.90
2017,09,04,17,09,31.90
2017,09,04,17,10,31.90
2017,09,04,17,11,31.90
2017,09,04,17,12,31.90
2017,09,04,17,13,31.80
2017,09,04,17,14,31.80
2017,09,04,17,15,31.80
2017,09,04,17,16,31.80
2017,09,04,17,17,31.80
2017,09,04,17,18,31.80
2017,09,04,17,19,31.80